User: anonymous   Login
Location: State Camp
(41.2367°N, 77.7828°W)
Time: 02:56:16
(UTC-04:00)
Language:

ADEOS Rocket - Orbit

View from above orbital plane
View from above orbital plane
View from above satellite
View from above satellite

Ground track
Ground track

The orbit data is extracted from the following two-line orbital elements,

1 24279U 96046C   17173.87623632 -.00000036 +00000-0 +32158-5 0  9999
2 24279 098.7531 117.1302 0298983 274.2737 136.8870 13.47085301024736
Epoch (UTC): 22 June 2017 21:01:46
Eccentricity: 0.0298983
inclination: 98.7531°
perigee height: 860 km
apogee height: 1306 km
right ascension of ascending node: 117.1302°
argument of perigee: 274.2737°
revolutions per day: 13.47085301
mean anomaly at epoch: 136.8870°
orbit number at epoch: 2473

The dashed part of the orbit path shows where the satellite is in the earth's shadow,  

DLR